This is the latest recevied weather packets stored in our database for station/object KD8OZS. If no packets are shown the sender has not sent any weather packets the latest 10 day(s).
| Time | Temp. | Humidity | Pressure | Rain* | Wind** | Luminosity | Snow |
|---|---|---|---|---|---|---|---|
| 1778144188 | 1.67° C | 98% | 1005.2 hPa | 0 mm | - | 0 W/m² | - |
| 1778143885 | 1.67° C | 98% | 1005.6 hPa | 0 mm | - | 0 W/m² | - |
| 1778143582 | 1.67° C | 98% | 1005.5 hPa | 0 mm | - | 0 W/m² | - |
| 1778143278 | 1.67° C | 98% | 1005.6 hPa | 0 mm | - | 0 W/m² | - |
| 1778142975 | 1.67° C | 98% | 1005.6 hPa | 0 mm | - | 0 W/m² | - |
| 1778142672 | 1.11° C | 98% | 1005.6 hPa | 0 mm | - | 0 W/m² | - |
| 1778142368 | 1.67° C | 98% | 1005.5 hPa | 0 mm | - | 0 W/m² | - |
| 1778142065 | 1.67° C | 98% | 1005.4 hPa | 0 mm | - | 0 W/m² | - |
| 1778141761 | 1.67° C | 97% | 1005.5 hPa | 0 mm | - | 0 W/m² | - |
| 1778141458 | 1.67° C | 97% | 1005.4 hPa | 0 mm | - | 0 W/m² | - |
| 1778141154 | 1.67° C | 97% | 1005.8 hPa | 0 mm | - | 0 W/m² | - |
| 1778140851 | 1.67° C | 97% | 1005.6 hPa | 0 mm | - | 0 W/m² | - |
| 1778140545 | 1.67° C | 97% | 1005.8 hPa | 0 mm | - | 0 W/m² | - |
| 1778140242 | 1.67° C | 97% | 1005.8 hPa | 0 mm | - | 0 W/m² | - |
| 1778139939 | 1.67° C | 97% | 1005.6 hPa | 0 mm | - | 0 W/m² | - |
| 1778139638 | 1.67° C | 97% | 1005.7 hPa | 0 mm | - | 0 W/m² | - |
| 1778139333 | 2.22° C | 97% | 1005.8 hPa | 0 mm | - | 0 W/m² | - |
| 1778139030 | 2.22° C | 97% | 1005.6 hPa | 0 mm | - | 0 W/m² | - |
| 1778138728 | 1.67° C | 97% | 1005.8 hPa | 0 mm | - | 0 W/m² | - |
| 1778138425 | 2.22° C | 97% | 1005.6 hPa | 0 mm | - | 0 W/m² | - |
| 1778138122 | 2.22° C | 97% | 1005.7 hPa | 0 mm | - | 0 W/m² | - |
| 1778137819 | 2.22° C | 97% | 1005.8 hPa | 0 mm | - | 0 W/m² | - |
| 1778137515 | 2.78° C | 97% | 1005.8 hPa | 0 mm | - | 0 W/m² | - |
| 1778137213 | 2.22° C | 97% | 1005.7 hPa | 0 mm | - | 0 W/m² | - |
| 1778136909 | 2.22° C | 96% | 1005.8 hPa | 0 mm | - | 0 W/m² | - |
* Rain latest hour (hover to see other rain measurements)
** Current wind speed in m/s (hover to see current wind gust speed)